Location: Berlin
(52.5170°N, 13.3889°E)
Time: 22:17:27
(UTC+02:00)

LES 1 - Pass Details

Date: 17 June 2025
Orbit: 2779 x 2808 km, 32.1° (Epoch: 12 July)

Event Time Altitude Azimuth Distance (km) Brightness Sun altitude
Rises 01:02:11 0° 239° (WSW) 6,569 12.0 -14.1°
Reaches altitude 10° 01:06:54 10° 231° (SW) 5,551 11.5 -14.1°
Maximum altitude 01:20:18 34° 173° (S) 3,901 10.5 -14.0°
Drops below altitude 10° 01:33:43 10° 116° (ESE) 5,569 11.7 -13.9°
Sets 01:38:27 0° 107° (ESE) 6,593 12.2 -13.8°
